DECAYED

STARLINK-1352, 45536 (Decayed)

Orbit data source: Space-Track

STARLINK-1352, 45536 was a payload satellite owned by SpaceX/Seattle (US) in LEO that was launched on Wed, 22 Apr 2020 UTC via an FALCON 9 launch vehicle from the Air Force Eastern Test Range (AFETR). Payload-class satellites include a variety of spacecraft equipped with specific instruments for various scientific and technological missions. These include communications satellites like Starlink; space stations such as the ISS; scientific satellites like the Hubble; Earth observation satellites from companies like Planet Labs, Umbra, and HawkEye 360; GPS; miniature CubeSats for education and research; and military/defense satellites.

Not visible in the next 10 days
Identifier
45536, 2020-025F
Orbit
Decayed
Last TLE update
3 weeks ago
Origin
Manufacturer
SpaceX/Seattle
Mission
Decayed Commercial Communications
Bus & Motor
STARLINK, Unknown motor
Mass
260 kg wet, ~248 kg dry
Launch date (UTC)
2020-04-22 (5 years ago)
Launch vehicle
FALCON 9
Launch site
Air Force Eastern Test Range (AFETR)
Object type
Payload
Rocket body
Debris
Shape & HBR
Box + 1 Pan, 4.4 m
Radar Cross Section
13.562 m², Large (>1 m²)

Expand to show TLE details & history

TLE from 3 weeks ago
0 STARLINK-1352
1 45536U 20025F   25177.60031249  .06062667  12348-4  33992-3 0  9993
2 45536  53.0379 117.3426 0005072 160.4656  16.9707 16.42051704286723
Epoch: 2025-06-26T14:24Z
TLE epoch observation values (Epoch: 2025-06-26T14:24:26.999Z)
Latitude
1.96369°
Longitude
164.79497°
Altitude
157.874 km
Speed
7.815 km/s
True Right ascension
19h 43m 29s
True Declination
1° 57' 03"
Sunlit
Object was in full shadow at epoch
Visualization orbit readout
Visualization observer readout
Orbital elements
Apogee altitude
163.956 km
Perigee altitude
157.323 km
Semi-major axis
6,538.776 km
Eccentricity
0.00051
Inclination
53.0379°
RAAN
117.3426°
Arg. of periapsis
160.4656°
True anomaly
16.98767°
Mean anomaly
16.9707°
Eccentric anomaly
16.97919°
Mean motion
4.10486 °/min
Orbital period
87.7 mins
BSTAR
0.00033992
Loading maneuver chart data...
Loading SW <> Apogee altitude chart data...
|